Time,TemperatureF,DewpointF,PressureIn,WindDirection,WindDirectionDegrees,WindSpeedMPH,WindSpeedGustMPH,Humidity,HourlyPrecipIn,Conditions,Clouds,dailyrainin,SoftwareType,DateUTC
2013-07-16 00:00:00,70.2,64.1,30.06,SSW,203,0.4,0.4,81,0.00,,,0.00,WUHU216HW,2013-07-16 04:00:00,
2013-07-16 00:01:00,70.2,64.1,30.06,SSW,203,0.4,0.4,81,0.00,,,0.00,WUHU216HW,2013-07-16 04:01:00,
2013-07-16 00:06:00,70.2,64.5,30.06,North,0,1.3,1.8,82,0.00,,,0.00,WUHU216HW,2013-07-16 04:06:00,
2013-07-16 00:11:00,70.2,64.5,30.06,North,0,1.3,1.8,82,0.00,,,0.00,WUHU216HW,2013-07-16 04:11:00,
2013-07-16 03:00:00,69.8,64.7,30.06,SW,225,0.0,0.0,84,0.00,,,0.00,WUHU216HW,2013-07-16 07:00:00,
2013-07-16 03:05:00,69.8,64.7,30.06,SW,225,0.0,0.0,84,0.00,,,0.00,WUHU216HW,2013-07-16 07:05:00,
2013-07-16 03:10:00,69.8,64.7,30.06,SW,225,0.0,0.0,84,0.00,,,0.00,WUHU216HW,2013-07-16 07:10:00,
2013-07-16 09:00:00,72.0,66.5,30.09,WSW,248,0.0,0.0,83,0.00,,,0.00,WUHU216HW,2013-07-16 13:00:00,
2013-07-16 09:05:00,72.4,66.6,30.09,NNE,23,0.2,0.4,82,0.00,,,0.00,WUHU216HW,2013-07-16 13:05:00,
2013-07-16 09:10:00,72.4,66.9,30.09,NE,45,1.3,2.0,83,0.00,,,0.00,WUHU216HW,2013-07-16 13:10:00,
2013-07-16 09:15:00,72.2,66.7,30.09,NE,45,0.0,2.0,83,0.00,,,0.00,WUHU216HW,2013-07-16 13:15:00,
2013-07-16 09:20:00,72.4,66.6,30.09,NNE,23,0.0,1.3,82,0.00,,,0.00,WUHU216HW,2013-07-16 13:20:00,
2013-07-16 09:25:00,72.7,67.2,30.09,SSW,203,0.0,1.3,83,0.00,,,0.00,WUHU216HW,2013-07-16 13:25:00,
2013-07-16 09:30:00,73.1,67.3,30.09,NNW,338,0.0,1.1,82,0.00,,,0.00,WUHU216HW,2013-07-16 13:30:00,
2013-07-16 09:35:00,73.4,67.7,30.09,SW,225,0.4,1.1,82,0.00,,,0.00,WUHU216HW,2013-07-16 13:35:00,
2013-07-16 09:40:00,73.8,68.1,30.09,SSW,203,0.9,1.1,82,0.00,,,0.00,WUHU216HW,2013-07-16 13:40:00,
2013-07-16 09:45:00,73.8,67.7,30.09,SSW,203,1.1,1.3,81,0.00,,,0.00,WUHU216HW,2013-07-16 13:45:00,
2013-07-16 09:50:00,74.0,68.2,30.09,North,0,0.4,1.3,82,0.00,,,0.00,WUHU216HW,2013-07-16 13:50:00,
2013-07-16 09:55:00,74.2,68.1,30.09,North,0,0.0,1.3,81,0.00,,,0.00,WUHU216HW,2013-07-16 13:55:00,
2013-07-16 10:00:00,74.0,67.9,30.09,NW,315,0.0,0.7,81,0.00,,,0.00,WUHU216HW,2013-07-16 14:00:00,
2013-07-16 10:05:00,73.8,67.7,30.09,North,0,0.0,0.7,81,0.00,,,0.00,WUHU216HW,2013-07-16 14:05:00,
2013-07-16 10:10:00,74.0,67.9,30.09,NE,45,0.2,0.7,81,0.00,,,0.00,WUHU216HW,2013-07-16 14:10:00,
2013-07-16 10:15:00,74.3,68.2,30.09,NNE,23,0.4,0.7,81,0.00,,,0.00,WUHU216HW,2013-07-16 14:15:00,
2013-07-16 10:20:00,74.7,68.6,30.09,NW,315,0.4,1.8,81,0.00,,,0.00,WUHU216HW,2013-07-16 14:20:00,
2013-07-16 10:25:00,74.9,68.8,30.09,SSW,203,0.0,1.8,81,0.00,,,0.00,WUHU216HW,2013-07-16 14:25:00,
2013-07-16 10:30:00,75.2,69.1,30.09,East,90,0.4,1.6,81,0.00,,,0.00,WUHU216HW,2013-07-16 14:30:00,
2013-07-16 10:35:00,75.6,69.1,30.09,West,270,0.4,2.2,80,0.00,,,0.00,WUHU216HW,2013-07-16 14:35:00,
2013-07-16 10:40:00,76.1,69.6,30.09,WSW,248,0.0,2.2,80,0.00,,,0.00,WUHU216HW,2013-07-16 14:40:00,
2013-07-16 10:45:00,76.5,69.9,30.09,NNE,23,0.0,1.8,80,0.00,,,0.00,WUHU216HW,2013-07-16 14:45:00,
2013-07-16 10:50:00,77.0,70.0,30.09,ENE,68,0.7,1.8,79,0.00,,,0.00,WUHU216HW,2013-07-16 14:50:00,
2013-07-16 10:55:00,77.2,69.0,30.09,NE,45,2.0,2.0,76,0.00,,,0.00,WUHU216HW,2013-07-16 14:55:00,
2013-07-16 11:00:00,76.9,68.7,30.09,NE,45,1.1,2.2,76,0.00,,,0.00,WUHU216HW,2013-07-16 15:00:00,
2013-07-16 11:05:00,76.9,69.1,30.09,NNE,23,0.9,2.2,77,0.00,,,0.00,WUHU216HW,2013-07-16 15:05:00,
2013-07-16 13:00:00,80.8,69.8,30.07,ENE,68,1.8,1.8,69,0.00,,,0.00,WUHU216HW,2013-07-16 17:00:00,
2013-07-16 13:05:00,80.8,69.8,30.07,ENE,68,1.8,1.8,69,0.00,,,0.00,WUHU216HW,2013-07-16 17:05:00,
2013-07-16 14:00:00,83.2,72.4,30.06,West,270,1.8,1.8,70,0.00,,,0.00,WUHU216HW,2013-07-16 18:00:00,
2013-07-16 14:05:00,83.2,72.4,30.06,West,270,1.8,1.8,70,0.00,,,0.00,WUHU216HW,2013-07-16 18:05:00,
2013-07-16 15:00:00,86.4,73.3,30.05,WSW,248,0.4,0.4,65,0.00,,,0.00,WUHU216HW,2013-07-16 19:00:00,
2013-07-16 15:05:00,86.4,73.3,30.05,WSW,248,0.4,0.4,65,0.00,,,0.00,WUHU216HW,2013-07-16 19:05:00,
2013-07-16 16:00:00,88.9,73.8,30.04,SW,225,1.1,1.1,61,0.00,,,0.00,WUHU216HW,2013-07-16 20:00:00,
2013-07-16 16:05:00,89.8,74.6,30.04,WSW,248,0.0,1.1,61,0.00,,,0.00,WUHU216HW,2013-07-16 20:05:00,
2013-07-16 16:10:00,90.5,73.7,30.03,SW,225,1.1,1.3,58,0.00,,,0.00,WUHU216HW,2013-07-16 20:10:00,
2013-07-16 16:15:00,90.7,74.4,30.03,SW,225,0.0,1.3,59,0.00,,,0.00,WUHU216HW,2013-07-16 20:15:00,
2013-07-16 16:20:00,90.7,73.4,30.03,SSW,203,0.4,1.1,57,0.00,,,0.00,WUHU216HW,2013-07-16 20:20:00,
2013-07-16 16:25:00,90.5,73.2,30.03,WSW,248,0.0,2.5,57,0.00,,,0.00,WUHU216HW,2013-07-16 20:25:00,
2013-07-16 16:30:00,91.1,73.6,30.03,SW,225,0.4,2.5,57,0.00,,,0.00,WUHU216HW,2013-07-16 20:30:00,
2013-07-16 16:35:00,91.1,73.6,30.03,ENE,68,0.4,1.8,57,0.00,,,0.00,WUHU216HW,2013-07-16 20:35:00,
2013-07-16 16:40:00,90.5,72.1,30.02,SSW,203,0.9,1.8,55,0.00,,,0.00,WUHU216HW,2013-07-16 20:40:00,
2013-07-16 16:45:00,89.3,71.5,30.02,SW,225,0.0,1.3,56,0.00,,,0.00,WUHU216HW,2013-07-16 20:45:00,
2013-07-16 16:50:00,89.1,71.9,30.02,SW,225,0.0,1.1,57,0.00,,,0.00,WUHU216HW,2013-07-16 20:50:00,
2013-07-16 16:55:00,89.5,72.2,30.03,SW,225,0.0,1.3,57,0.00,,,0.00,WUHU216HW,2013-07-16 20:55:00,
2013-07-16 17:00:00,89.5,72.2,30.03,South,180,0.0,1.3,57,0.00,,,0.00,WUHU216HW,2013-07-16 21:00:00,
2013-07-16 17:05:00,89.6,72.9,30.03,SSW,203,1.1,1.1,58,0.00,,,0.00,WUHU216HW,2013-07-16 21:05:00,
2013-07-16 17:10:00,89.6,72.4,30.03,SW,225,0.7,1.1,57,0.00,,,0.00,WUHU216HW,2013-07-16 21:10:00,
2013-07-16 17:15:00,89.3,72.0,30.03,SW,225,0.0,1.1,57,0.00,,,0.00,WUHU216HW,2013-07-16 21:15:00,
2013-07-16 17:20:00,88.7,71.6,30.03,SW,225,0.9,1.6,57,0.00,,,0.00,WUHU216HW,2013-07-16 21:20:00,
2013-07-16 17:25:00,88.9,71.7,30.03,SW,225,0.4,1.6,57,0.00,,,0.00,WUHU216HW,2013-07-16 21:25:00,
2013-07-16 17:30:00,89.8,72.6,30.03,SSW,203,0.2,1.1,57,0.00,,,0.00,WUHU216HW,2013-07-16 21:30:00,
2013-07-16 17:35:00,90.4,72.5,30.03,SSW,203,0.0,1.1,56,0.00,,,0.00,WUHU216HW,2013-07-16 21:35:00,
2013-07-16 17:40:00,90.4,72.5,30.03,SSW,203,0.0,0.2,56,0.00,,,0.00,WUHU216HW,2013-07-16 21:40:00,
2013-07-16 18:00:00,99.4,75.5,30.03,SSW,203,0.2,0.2,47,0.00,,,0.00,WUHU216HW,2013-07-16 22:00:00,
2013-07-16 18:05:00,99.4,75.5,30.03,SSW,203,0.2,0.2,47,0.00,,,0.00,WUHU216HW,2013-07-16 22:05:00,
2013-07-16 19:00:00,98.1,71.7,30.03,SSW,203,1.1,1.1,43,0.00,,,0.00,WUHU216HW,2013-07-16 23:00:00,
2013-07-16 19:05:00,98.1,71.7,30.03,SSW,203,1.1,1.1,43,0.00,,,0.00,WUHU216HW,2013-07-16 23:05:00,